Date,TemperatureHighF,TemperatureAvgF,TemperatureLowF,DewpointHighF,DewpointAvgF,DewpointLowF,HumidityHigh,HumidityAvg,HumidityLow,PressureMaxIn,PressureMinIn,WindSpeedMaxMPH,WindSpeedAvgMPH,GustSpeedMaxMPH,PrecipitationSumIn
2014-1-1,40.0,32.7,28.0,17.0,13.8,10.0,53,45,35,0.00,40.00,12,8,25,0.00
2014-1-2,44.0,32.1,24.0,13.0,10.5,7.0,57,42,23,0.00,40.00,5,4,12,0.00
2014-1-3,47.0,42.8,36.0,1.0,-5.1,-19.0,22,14,6,0.00,40.00,5,3,10,0.00
2014-1-4,42.0,29.6,15.0,19.0,8.7,-99.9,57,43,33,0.00,40.00,17,9,32,0.00
2014-1-5,23.0,16.0,9.0,1.0,-2.9,-5.0,58,43,30,0.00,40.00,12,9,29,0.00
2014-1-6,28.0,17.8,8.0,-2.0,-4.9,-8.0,53,37,23,0.00,40.00,10,5,21,0.00
2014-1-7,36.0,30.2,20.0,7.0,2.2,-9.0,37,30,22,0.00,40.00,4,2,9,0.00
2014-1-8,40.0,29.5,23.0,10.0,4.6,-1.0,42,34,29,0.00,40.00,7,4,11,0.00
2014-1-9,36.0,31.2,28.0,18.0,14.1,8.0,61,49,37,0.00,40.00,4,2,11,0.00
2014-1-10,36.0,30.2,23.0,16.0,13.9,11.0,65,51,41,0.00,40.00,15,9,30,0.00
2014-1-11,46.0,35.1,27.0,19.0,15.0,-99.9,58,45,33,0.00,40.00,10,5,21,0.05
2014-1-12,39.0,31.9,23.0,19.0,11.3,-1.0,54,43,24,0.00,40.00,17,10,32,0.03
2014-1-13,35.0,25.1,16.0,12.0,7.0,3.0,59,46,35,0.00,40.00,16,10,31,0.03
2014-1-14,39.0,27.2,22.0,14.0,12.6,11.0,65,54,31,0.00,40.00,10,8,24,0.00
2014-4-9,73.0,64.3,48.0,21.0,15.7,13.0,30,16,10,0.00,40.00,6,4,17,0.00
2014-4-10,66.0,49.0,36.0,17.0,8.4,0.0,38,22,7,0.00,40.00,4,2,13,0.00
2014-4-11,73.0,51.5,36.0,16.0,6.7,1.0,30,18,7,0.00,40.00,5,3,14,0.00
2014-4-12,69.0,50.9,39.0,29.0,14.2,-99.9,37,24,12,0.00,40.00,7,3,20,0.00
2014-4-13,57.0,46.4,37.0,37.0,26.0,17.0,83,47,21,0.00,40.00,6,3,19,0.02
2014-4-14,37.0,32.6,30.0,25.0,19.5,15.0,68,58,52,0.00,40.00,4,3,15,0.02
2014-4-15,60.0,38.8,23.0,11.0,7.2,4.0,45,29,13,0.00,40.00,6,3,14,0.00
2014-4-16,64.0,44.5,30.0,23.0,11.5,3.0,43,27,14,0.00,40.00,8,3,19,0.00
2014-4-17,62.0,42.5,30.0,26.0,20.4,18.0,66,44,18,0.00,40.00,4,2,12,0.00
2014-4-18,72.0,49.1,41.0,30.0,21.3,18.0,41,34,14,0.00,40.00,5,2,18,0.00
2014-4-19,59.0,48.8,40.0,45.0,35.3,-99.9,99,68,39,0.00,40.00,4,2,12,0.03
2014-4-20,65.0,48.6,36.0,38.0,32.1,27.0,86,57,26,0.00,40.00,4,2,13,0.02
2014-4-21,75.0,52.0,38.0,31.0,25.9,19.0,64,41,13,0.00,40.00,6,2,16,0.02
2014-4-22,74.0,61.9,48.0,36.0,25.2,19.0,43,27,15,0.00,40.00,9,4,23,0.00
2014-4-23,63.0,53.8,42.0,26.0,19.0,9.0,52,27,15,0.00,40.00,7,4,20,0.00
2014-4-24,63.0,42.7,27.0,11.0,6.1,-2.0,41,24,7,0.00,40.00,6,3,14,0.00
2014-4-25,72.0,50.8,37.0,17.0,8.3,1.0,24,18,11,0.00,40.00,7,4,16,0.00
2014-4-26,60.0,54.0,46.0,25.0,19.3,16.0,33,26,20,0.00,40.00,12,6,31,0.00
2014-4-28,47.0,41.6,38.0,6.0,-0.5,-4.0,26,17,13,0.00,40.00,6,5,19,0.00
2014-4-29,52.0,35.8,29.0,14.0,11.0,4.0,47,37,14,0.00,40.00,4,3,14,0.00
2014-4-30,54.0,36.0,25.0,17.0,11.8,7.0,52,39,15,0.00,40.00,5,2,12,0.00
2014-5-1,56.0,35.0,28.0,21.0,17.1,7.0,64,50,14,0.00,40.00,4,2,12,0.00
2014-5-2,68.0,43.5,32.0,19.0,14.3,12.0,45,33,15,0.00,40.00,5,2,15,0.00
2014-5-3,73.0,53.0,39.0,23.0,14.7,-99.9,42,25,13,0.00,40.00,6,3,14,0.00
2014-5-4,79.0,57.0,41.0,18.0,12.7,9.0,33,19,7,0.00,40.00,8,3,18,0.00
2014-5-5,71.0,49.9,39.0,18.0,12.0,5.0,35,23,10,0.00,40.00,6,2,13,0.00
2014-5-6,69.0,55.7,45.0,19.0,12.0,4.0,32,19,8,0.00,40.00,9,3,20,0.00
2014-5-7,57.0,57.0,57.0,7.0,7.0,7.0,13,13,13,0.00,40.00,3,3,10,0.00
2014-5-13,51.0,45.0,38.0,26.0,23.7,22.0,61,44,35,0.00,40.00,4,2,11,0.01
2014-5-14,63.0,45.6,31.0,28.0,19.9,13.0,80,43,15,0.00,40.00,5,3,16,0.01
2014-5-15,69.0,50.1,35.0,20.0,16.9,14.0,43,29,14,0.00,40.00,7,3,18,0.00
2014-5-16,78.0,56.4,41.0,26.0,21.1,17.0,46,28,12,0.00,40.00,6,2,20,0.00
2014-5-17,83.0,64.5,47.0,26.0,17.4,-99.9,33,19,7,0.00,40.00,7,3,21,0.00
2014-5-18,83.0,62.5,47.0,24.0,14.1,2.0,28,17,7,0.00,40.00,6,3,18,0.00
2014-5-19,81.0,54.9,43.0,14.0,1.6,-99.9,24,14,6,0.00,40.00,9,3,21,0.00
2014-5-20,80.0,63.6,41.0,16.0,9.0,-99.9,25,13,6,0.00,40.00,8,4,22,0.00
2014-5-21,79.0,66.5,49.0,22.0,17.6,14.0,25,16,10,0.00,40.00,10,4,24,0.00
2014-5-22,77.0,66.7,55.0,31.0,23.6,-99.9,35,21,13,0.00,40.00,9,4,26,0.00
2014-5-23,68.0,54.7,47.0,50.0,42.4,31.0,93,68,30,0.00,40.00,7,3,24,0.32
2014-5-24,64.0,51.3,43.0,44.0,38.3,-99.9,90,66,38,0.00,40.00,8,3,21,0.03
2014-5-25,57.0,47.5,43.0,44.0,42.6,41.0,97,84,58,0.00,40.00,5,2,10,0.27
2014-5-26,74.0,57.0,39.0,47.0,40.0,32.0,100,62,23,0.00,40.00,7,3,16,0.03
2014-5-27,85.0,67.2,45.0,41.0,35.5,30.0,70,35,16,0.00,40.00,5,3,16,0.00
2014-5-28,90.0,73.5,56.0,39.0,30.8,21.0,42,24,8,0.00,40.00,7,3,20,0.00
2014-5-29,84.0,73.5,63.0,43.0,37.0,30.0,43,28,17,0.00,40.00,7,3,20,0.00
2014-5-30,84.0,68.3,58.0,45.0,38.1,26.0,59,36,16,0.00,40.00,5,2,16,0.00
2014-5-31,89.0,71.2,54.0,41.0,30.8,-99.9,53,27,10,0.00,40.00,7,3,18,0.00
2014-6-1,84.0,69.8,52.0,33.0,23.7,10.0,43,21,6,0.00,40.00,7,4,21,0.00
2014-6-2,89.0,79.6,61.0,17.0,9.2,2.0,14,8,4,0.00,40.00,6,4,20,0.00
2014-6-3,89.0,72.5,56.0,25.0,18.5,11.0,22,14,8,0.00,40.00,9,3,25,0.00
2014-6-4,90.0,69.6,48.0,24.0,11.8,0.0,29,13,4,0.00,40.00,5,3,16,0.00
2014-6-5,90.0,71.8,49.0,14.0,3.1,-9.0,21,8,2,0.00,40.00,6,3,17,0.00
2014-6-6,91.0,71.6,53.0,14.0,2.0,-10.0,17,8,2,0.00,40.00,7,3,14,0.00
2014-6-7,92.0,72.1,54.0,37.0,17.4,-99.9,35,14,4,0.00,40.00,6,4,17,0.00
2014-6-8,82.0,69.3,56.0,41.0,31.2,18.0,52,27,9,0.00,40.00,8,4,30,0.00
2014-6-9,82.0,66.4,42.0,26.0,18.9,10.0,39,18,7,0.00,40.00,7,4,19,0.00
2014-6-10,89.0,71.9,49.0,23.0,17.2,13.0,30,14,6,0.00,40.00,6,3,18,0.00
2014-6-11,88.0,73.0,56.0,29.0,19.4,11.0,25,14,6,0.00,40.00,8,3,20,0.00
2014-6-12,88.0,71.6,51.0,29.0,23.7,15.0,42,19,7,0.00,40.00,6,3,18,0.00
2014-6-13,87.0,73.2,52.0,37.0,28.0,19.0,35,20,11,0.00,40.00,8,4,22,0.00
2014-6-14,82.0,68.9,52.0,31.0,18.7,-99.9,39,18,6,0.00,40.00,11,5,31,0.00
2014-6-15,84.0,66.8,45.0,18.0,10.2,3.0,27,14,5,0.00,40.00,7,4,22,0.00
2014-6-16,84.0,70.1,45.0,16.0,10.1,5.0,22,10,5,0.00,40.00,10,5,26,0.00
2014-6-17,83.0,72.4,57.0,28.0,25.1,14.0,31,18,11,0.00,40.00,10,5,26,0.00
2014-6-18,79.0,67.1,51.0,33.0,28.7,19.0,44,25,15,0.00,40.00,8,3,28,0.00
2014-6-19,83.0,67.2,47.0,27.0,18.2,3.0,35,18,6,0.00,40.00,7,3,18,0.00
2014-6-20,89.0,70.0,50.0,21.0,13.8,7.0,26,13,6,0.00,40.00,6,3,20,0.00
2014-6-21,88.0,72.2,58.0,36.0,20.1,-99.9,24,15,7,0.00,40.00,7,3,17,0.00
2014-6-22,89.0,72.5,54.0,26.0,21.8,17.0,27,16,8,0.00,40.00,7,3,18,0.00
2014-6-23,90.0,72.1,56.0,27.0,20.9,13.0,30,16,7,0.00,40.00,6,3,18,0.00
2014-6-24,91.0,71.2,52.0,20.0,15.7,8.0,24,13,6,0.00,40.00,6,3,20,0.00
2014-6-25,90.0,72.7,52.0,20.0,16.6,12.0,22,13,6,0.00,40.00,7,3,16,0.00
2014-6-26,89.0,72.3,51.0,26.0,18.8,12.0,23,14,8,0.00,40.00,6,3,17,0.00
2014-6-27,84.0,71.6,54.0,34.0,29.7,25.0,35,22,15,0.00,40.00,8,4,20,0.00
2014-6-28,86.0,71.2,55.0,34.0,26.3,-99.9,42,22,10,0.00,40.00,7,3,19,0.00
2014-6-29,94.0,75.7,55.0,31.0,27.6,22.0,32,18,10,0.00,40.00,7,3,19,0.00
2014-6-30,97.0,78.8,58.0,34.0,29.1,23.0,31,18,9,0.00,40.00,7,3,19,0.00
2014-7-1,94.0,79.4,56.0,28.0,23.1,17.0,30,14,7,0.00,40.00,7,4,19,0.00
2014-7-2,94.0,78.6,61.0,48.0,38.6,17.0,57,28,10,0.00,40.00,8,4,18,0.00
2014-7-3,94.0,77.1,62.0,47.0,41.7,34.0,47,31,12,0.00,40.00,9,5,21,0.00
2014-7-4,90.0,74.0,57.0,50.0,45.6,40.0,70,40,18,0.00,40.00,7,4,18,0.01
2014-7-5,89.0,73.2,62.0,49.0,43.9,-99.9,57,38,22,0.00,40.00,6,3,22,0.00
2014-7-6,93.0,76.1,60.0,48.0,42.5,33.0,57,33,15,0.00,40.00,6,3,19,0.00
2014-7-7,95.0,77.1,61.0,45.0,40.8,36.0,45,29,13,0.00,40.00,7,3,18,0.00
2014-7-8,94.0,73.8,60.0,57.0,44.9,39.0,89,42,16,0.00,40.00,9,3,21,0.26
2014-7-9,90.0,71.1,56.0,55.0,50.8,43.0,89,55,20,0.00,40.00,6,3,17,0.14
2014-7-10,90.0,76.3,61.0,54.0,49.7,44.0,74,44,21,0.00,40.00,6,3,19,0.00
2014-7-11,93.0,76.9,61.0,59.0,50.1,43.0,90,45,18,0.00,40.00,9,3,22,0.08
2014-7-12,86.0,70.2,60.0,59.0,53.6,49.0,93,60,28,0.00,40.00,7,3,20,0.09
2014-7-13,91.0,77.7,66.0,51.0,48.3,46.0,52,37,23,0.00,40.00,7,4,19,0.00
2014-7-14,92.0,76.7,63.0,54.0,50.8,47.0,70,44,22,0.00,40.00,5,3,13,0.00
2014-7-15,89.0,73.9,62.0,55.0,50.1,44.0,73,47,23,0.00,40.00,8,4,19,0.00
2014-7-16,91.0,70.4,57.0,56.0,52.1,44.0,87,57,20,0.00,40.00,6,3,19,0.04
2014-7-17,91.0,74.1,58.0,54.0,44.6,26.0,84,44,11,0.00,40.00,6,3,19,0.01
2014-7-18,95.0,75.7,60.0,52.0,42.0,31.0,71,36,11,0.00,40.00,6,3,19,0.00
2014-7-19,95.0,80.8,64.0,52.0,40.3,32.0,48,26,11,0.00,40.00,6,3,20,0.00
2014-7-20,94.0,78.1,64.0,45.0,40.1,30.0,48,29,15,0.00,40.00,5,2,18,0.00
2014-7-21,92.0,79.1,63.0,46.0,37.0,30.0,44,24,13,0.00,40.00,6,2,15,0.00
2014-7-22,100.0,82.1,58.0,58.0,34.5,28.0,74,21,8,0.00,40.00,6,3,17,0.12
2014-7-23,96.0,79.2,63.0,61.0,49.6,38.0,90,44,14,0.00,40.00,8,4,18,0.19
2014-7-24,92.0,78.7,64.0,53.0,48.8,43.0,63,38,20,0.00,40.00,6,4,16,0.00
2014-7-25,94.0,80.0,62.0,51.0,46.4,42.0,64,34,17,0.00,40.00,6,3,21,0.00
2014-7-26,98.0,79.9,61.0,47.0,42.0,41.0,50,27,15,0.00,40.00,8,3,19,0.00
2014-7-27,95.0,76.0,62.0,61.0,49.0,42.0,95,44,17,0.00,40.00,7,3,19,0.11
2014-7-28,82.0,65.6,61.0,61.0,57.6,53.0,96,77,40,0.00,40.00,6,3,16,0.11
2014-7-29,86.0,71.3,60.0,58.0,53.3,46.0,89,58,25,0.00,40.00,5,2,16,0.01
2014-7-30,89.0,74.8,56.0,53.0,47.6,42.0,79,42,20,0.00,40.00,7,3,21,0.00
2014-7-31,88.0,70.8,59.0,57.0,50.3,46.0,74,50,27,0.00,40.00,7,3,24,0.00
2014-8-1,87.0,70.0,60.0,54.0,52.4,48.0,77,56,26,0.00,40.00,5,3,16,0.02
2014-8-2,84.0,69.0,58.0,53.0,50.5,45.0,81,56,26,0.00,40.00,8,4,20,0.02
2014-8-3,86.0,72.2,60.0,54.0,48.0,42.0,62,45,22,0.00,40.00,7,4,17,0.00
2014-8-4,83.0,70.8,62.0,57.0,53.5,50.0,75,55,32,0.00,40.00,6,3,15,0.01
2014-8-5,86.0,71.4,58.0,57.0,47.9,36.0,88,51,20,0.00,40.00,6,3,17,0.01
2014-8-6,90.0,70.5,57.0,45.0,39.2,33.0,61,36,13,0.00,40.00,7,3,20,0.01
2014-8-7,89.0,81.1,62.0,46.0,37.5,33.0,50,22,14,0.00,40.00,9,5,18,0.00
2014-8-8,89.0,74.7,58.0,48.0,33.9,19.0,65,30,9,0.00,40.00,7,3,16,0.00
2014-8-9,91.0,74.4,56.0,34.0,26.3,19.0,36,18,8,0.00,40.00,6,3,20,0.00
2014-8-10,92.0,75.8,61.0,44.0,35.3,29.0,36,24,11,0.00,40.00,6,3,17,0.00
2014-8-11,90.0,73.8,58.0,47.0,43.5,37.0,54,35,16,0.00,40.00,9,4,19,0.00
2014-8-12,82.0,70.5,64.0,50.0,46.8,43.0,56,44,31,0.00,40.00,6,2,14,0.00
2014-8-13,81.0,66.2,61.0,60.0,49.9,45.0,97,58,33,0.00,40.00,6,2,19,0.13
2014-8-14,78.0,64.5,57.0,60.0,56.8,50.0,100,80,37,0.00,40.00,5,1,17,0.14
2014-8-15,89.0,65.0,56.0,55.0,51.0,46.0,86,64,23,0.00,40.00,4,1,16,0.01
2014-8-16,87.0,69.2,60.0,47.0,43.8,40.0,58,42,19,0.00,40.00,4,2,14,0.00
2014-8-17,84.0,67.2,62.0,45.0,42.2,40.0,48,41,25,0.00,40.00,5,2,13,0.00
2014-8-18,88.0,70.8,63.0,45.0,42.3,41.0,45,37,21,0.00,40.00,5,3,11,0.00
2014-8-19,81.0,75.8,65.0,51.0,45.5,42.0,60,35,25,0.00,40.00,7,5,16,0.00
2014-8-20,79.0,65.4,59.0,58.0,50.8,36.0,95,65,22,0.00,40.00,5,1,17,0.00
2014-8-21,84.0,66.0,50.0,41.0,35.7,33.0,58,36,18,0.00,40.00,5,2,15,0.00
2014-8-22,69.0,59.0,54.0,55.0,51.1,40.0,95,78,36,0.00,40.00,6,3,15,0.13
2014-8-23,79.0,62.0,51.0,53.0,47.6,43.0,96,64,29,0.00,40.00,5,2,13,0.05
2014-8-24,84.0,67.9,51.0,46.0,43.0,39.0,80,47,20,0.00,40.00,6,2,14,0.00
2014-8-25,86.0,71.2,55.0,44.0,40.2,37.0,58,35,20,0.00,40.00,6,2,16,0.00
2014-8-26,76.0,62.2,54.0,55.0,45.9,39.0,96,58,31,0.00,40.00,6,3,16,0.15
2014-8-27,76.0,58.1,51.0,55.0,48.7,35.0,99,76,27,0.00,40.00,6,2,18,0.15
2014-8-28,78.0,59.9,44.0,47.0,42.2,37.0,93,58,25,0.00,40.00,6,2,16,0.01
2014-8-29,82.0,66.0,47.0,39.0,36.4,34.0,63,38,18,0.00,40.00,6,3,16,0.00
2014-8-30,87.0,69.5,56.0,40.0,34.2,29.0,50,29,13,0.00,40.00,5,2,14,0.00
2014-8-31,86.0,65.7,52.0,37.0,34.0,32.0,51,33,15,0.00,40.00,8,2,17,0.00
2014-9-1,87.0,68.2,55.0,39.0,33.4,26.0,53,32,12,0.00,40.00,7,2,20,0.00
2014-9-2,83.0,64.3,56.0,33.0,30.9,27.0,37,29,16,0.00,40.00,4,2,9,0.00
2014-9-3,90.0,68.4,53.0,35.0,29.6,26.0,40,26,10,0.00,40.00,8,2,21,0.00
2014-9-4,82.0,65.0,56.0,53.0,37.7,24.0,78,40,19,0.00,40.00,8,3,24,0.00
2014-9-5,83.0,63.9,51.0,48.0,43.4,37.0,80,53,24,0.00,40.00,5,2,13,0.00
2014-9-6,86.0,62.2,54.0,52.0,39.6,34.0,79,46,16,0.00,40.00,6,2,16,0.00
2014-9-7,85.0,69.4,58.0,49.0,43.9,36.0,69,43,19,0.00,40.00,5,3,13,0.00
2014-9-8,80.0,71.1,61.0,58.0,46.7,43.0,90,43,29,0.00,40.00,5,3,16,0.05
2014-9-9,70.0,60.5,55.0,61.0,56.8,53.0,99,89,60,0.00,40.00,6,2,16,0.47
2014-9-10,74.0,61.3,51.0,56.0,49.9,40.0,100,72,32,0.00,40.00,5,2,14,0.05
2014-9-11,80.0,61.0,46.0,45.0,37.5,29.0,87,49,17,0.00,40.00,5,2,13,0.00
2014-9-12,82.0,66.0,48.0,38.0,32.5,26.0,63,33,15,0.00,40.00,6,3,15,0.00
2014-9-13,75.0,57.2,50.0,47.0,40.1,30.0,83,56,20,0.00,40.00,6,2,13,0.00
2014-9-14,85.0,65.0,54.0,47.0,40.7,33.0,64,44,16,0.00,40.00,5,2,12,0.00
2014-9-15,82.0,68.7,58.0,50.0,45.0,37.0,66,44,23,0.00,40.00,6,3,17,0.00
2014-9-16,78.0,63.7,57.0,52.0,46.2,42.0,75,54,37,0.00,40.00,5,2,16,0.00
2014-9-17,73.0,62.2,57.0,53.0,50.1,46.0,78,65,47,0.00,40.00,5,2,17,0.03
2014-9-18,85.0,66.5,53.0,49.0,43.2,35.0,83,50,17,0.00,40.00,5,2,14,0.03
2014-9-19,87.0,68.5,57.0,53.0,43.7,36.0,70,43,22,0.00,40.00,5,2,15,0.00
2014-9-20,90.0,73.1,58.0,51.0,41.5,36.0,61,34,16,0.00,40.00,8,3,17,0.00
2014-9-21,80.0,67.3,60.0,55.0,49.1,41.0,76,55,25,0.00,40.00,7,3,18,0.00
2014-9-22,76.0,67.2,58.0,56.0,50.8,42.0,85,58,41,0.00,40.00,7,3,14,0.02
2014-9-23,81.0,64.2,54.0,52.0,43.8,34.0,77,52,20,0.00,40.00,4,2,14,0.01
2014-9-24,85.0,68.6,56.0,40.0,34.1,30.0,55,31,16,0.00,40.00,6,2,14,0.00
2014-9-25,83.0,65.0,57.0,48.0,36.9,31.0,62,38,19,0.00,40.00,5,2,13,0.00
2014-9-26,75.0,63.3,56.0,47.0,42.4,36.0,73,49,28,0.00,40.00,2,1,9,0.00
2014-9-27,74.0,61.6,57.0,49.0,44.9,39.0,75,54,39,0.00,40.00,7,2,16,0.00
2014-9-28,63.0,56.6,52.0,54.0,51.3,46.0,97,83,53,0.00,40.00,6,3,24,0.65
2014-9-29,63.0,54.0,50.0,52.0,45.5,35.0,98,77,39,0.00,40.00,6,2,17,0.69
2014-9-30,63.0,51.3,39.0,42.0,38.0,35.0,95,64,35,0.00,40.00,5,2,14,0.01
2014-10-1,67.0,53.4,43.0,40.0,37.1,34.0,85,57,31,0.00,40.00,7,3,18,0.00
2014-10-2,58.0,48.0,39.0,34.0,27.8,22.0,64,47,27,0.00,40.00,6,3,13,0.00
2014-10-3,67.0,52.5,37.0,31.0,27.2,22.0,71,40,22,0.00,40.00,5,3,15,0.00
2014-10-4,73.0,54.0,39.0,35.0,30.9,28.0,80,45,20,0.00,40.00,6,3,17,0.00
2014-10-5,70.0,51.2,38.0,36.0,30.5,26.0,81,49,22,0.00,40.00,6,2,14,0.00
2014-10-6,76.0,57.3,37.0,34.0,27.8,23.0,70,36,17,0.00,40.00,7,4,18,0.00
2014-10-7,75.0,56.8,43.0,31.0,28.0,23.0,53,36,18,0.00,40.00,4,2,12,0.00
2014-10-8,74.0,58.1,47.0,36.0,31.0,24.0,51,37,18,0.00,40.00,6,2,13,0.00
2014-10-9,60.0,55.2,51.0,51.0,46.8,37.0,96,75,43,0.00,40.00,5,1,10,0.07
2014-10-10,61.0,53.7,49.0,52.0,49.0,46.0,99,85,63,0.00,40.00,3,1,9,0.11
2014-10-11,70.0,53.3,45.0,48.0,43.0,37.0,97,72,33,0.00,40.00,4,2,12,0.01
2014-10-12,62.0,48.1,36.0,44.0,32.9,17.0,95,62,17,0.00,40.00,8,2,21,0.01
2014-10-13,62.0,44.2,28.0,29.0,24.2,18.0,81,50,18,0.00,40.00,6,3,18,0.00
2014-10-14,69.0,50.6,36.0,28.0,24.4,20.0,64,39,17,0.00,40.00,4,2,10,0.00
2014-10-15,69.0,48.9,41.0,30.0,28.4,25.0,58,47,23,0.00,40.00,5,3,13,0.00
2014-12-2,51.0,43.4,35.0,22.0,20.6,20.0,57,41,30,0.00,40.00,5,2,9,0.00
2014-12-3,51.0,43.4,36.0,39.0,29.2,21.0,87,59,34,0.00,40.00,4,2,9,0.02
2014-12-4,45.0,43.3,42.0,43.0,41.0,39.0,96,91,78,0.00,40.00,6,2,12,0.27
2014-12-5,48.0,40.8,36.0,42.0,38.5,34.0,99,93,68,0.00,40.00,4,1,8,0.03
2014-12-6,51.0,41.3,36.0,39.0,35.0,33.0,95,78,57,0.00,40.00,4,1,9,0.00
2014-12-7,54.0,39.6,29.0,38.0,33.9,28.0,98,82,54,0.00,40.00,6,2,11,0.00
2014-12-8,33.0,28.7,27.0,31.0,27.5,26.0,96,95,93,0.00,40.00,2,1,7,0.00
2014-12-9,55.0,35.9,26.0,31.0,25.9,23.0,95,69,35,0.00,40.00,4,1,9,0.00
2014-12-10,52.0,35.6,23.0,28.0,23.7,21.0,95,62,36,0.00,40.00,5,3,10,0.00
2014-12-11,59.0,35.0,22.0,28.0,24.0,20.0,94,69,25,0.00,40.00,4,2,8,0.00
2014-12-12,57.0,39.9,27.0,35.0,28.4,24.0,89,67,40,0.00,40.00,5,2,10,0.00
2014-12-13,57.0,40.2,32.0,40.0,31.5,29.0,98,74,40,0.00,40.00,6,2,20,0.08
2014-12-14,39.0,33.3,28.0,32.0,27.9,23.0,98,80,55,0.00,40.00,11,6,23,0.26
2014-12-15,40.0,28.4,17.0,24.0,21.2,15.0,91,76,48,0.00,40.00,5,3,10,0.02